User: anonymous   Login
Location: Unspecified
(0.0000°N, 0.0000°E)
Time: 01:18:28
(UTC+01:00)
Language:

ATLAS 3B CENTAUR R/B - Orbit

View from above orbital plane
View from above orbital plane
View from above satellite
View from above satellite

Ground track
Ground track

The orbit data is extracted from the following two-line orbital elements,

1 28118U 03057B   18019.97491113  .00062474 -33295-6  83021-3 0  9998
2 28118  28.1074 262.0139 2908770 143.4344 240.5133  9.66799379310303
Epoch (UTC): 19 January 2018 23:23:52
Eccentricity: 0.2908770
inclination: 28.1074°
perigee height: 222 km
apogee height: 5637 km
right ascension of ascending node: 262.0139°
argument of perigee: 143.4344°
revolutions per day: 9.66799379
mean anomaly at epoch: 240.5133°
orbit number at epoch: 31030

The dashed part of the orbit path shows where the satellite is in the earth's shadow,  

DLR